Simultaneous Nadir Overpasses (SNOs) Predictions

Prediction of SNOs between AQUA and NOAA-19 Satellite Orbit:

Table of predicted SNOs for the next 14.0 days since TLE Epoch: 8/23/2019
Index Date (AQUA) Time (AQUA) Lat,Lon (AQUA) SZA (AQUA ) Date (NOAA-19) Time (NOAA-19) Lat,Lon (NOAA-19) SZA (NOAA-19 ) Distance(km) Time Diff (sec)
1 08/24/2019 21:37:43 -80.30, 2.42 109.02 08/24/2019 21:37:54 -80.29, 2.33 109.02 1.88 11
2 08/27/2019 03:11:28 80.30, 98.94 71.75 08/27/2019 03:11:23 80.28, 98.86 71.74 2.94 5
3 08/29/2019 08:45:11 -80.29,-164.42 107.50 08/29/2019 08:44:41 -80.28,-164.31 107.51 2.40 30
4 08/29/2019 09:34:39 80.32, 3.00 72.56 08/29/2019 09:35:46 80.29, 3.06 72.50 3.09 67
5 08/31/2019 14:18:55 80.27, -67.65 73.25 08/31/2019 14:18:09 80.29, -67.53 73.27 2.74 46
6 08/31/2019 15:08:21 -80.28, 99.94 106.74 08/31/2019 15:09:04 -80.30, 99.90 106.73 2.13 43
7 09/02/2019 19:52:38 -80.27, 28.98 105.98 09/02/2019 19:51:28 -80.27, 29.01 105.95 1.05 70
8 09/02/2019 20:42:06 80.29,-163.63 74.08 09/02/2019 20:42:33 80.27,-163.73 74.07 2.62 27




NCC Satellite Simultaneous Nadir Overpasses (SNOs) Prediction Service
